When you browse on this site, cookies collect data to enhance your experience and personalize the content and advertising you see.
Visit our Privacy Policy to learn more. By continuing to use the site, you agree to this use of cookies and data.
  • In Czech Republic
  • List of Countries
  • For 7 days
  • Water Temperature
  • Weather Map
  • Weather Widgets
  • user-avatar
    Login

    Hourly Weather Cuilapa

    Today, 17 September, Tuesday

    Time Temperature Precipitation Wind Pressure Humidity
    00:00 +22°C° 1.1 mm 1 mps 686 mmHg 94%
    01:00 +21°C° 0.6 mm 1 mps 685 mmHg 94%
    02:00 +21°C° 0.6 mm 1 mps 685 mmHg 94%
    03:00 +21°C° 0.6 mm 1 mps 684 mmHg 94%
    04:00 +21°C° 0.1 mm 1 mps 685 mmHg 94%
    05:00 +21°C° 0.1 mm 1 mps 685 mmHg 93%
    06:00 +21°C° 0.1 mm 1 mps 685 mmHg 93%
    07:00 +23°C° 0.2 mm 1 mps 686 mmHg 89%
    08:00 +25°C° 0.2 mm 1 mps 687 mmHg 86%
    09:00 +26°C° 0.2 mm 1 mps 688 mmHg 83%
    10:00 +26°C° 0.8 mm 1 mps 687 mmHg 85%
    11:00 +26°C° 0.8 mm 1 mps 687 mmHg 86%
    12:00 +26°C° 0.8 mm 1 mps 686 mmHg 88%
    13:00 +26°C° 0.7 mm 1 mps 686 mmHg 86%
    14:00 +27°C° 0.7 mm 1 mps 685 mmHg 84%
    15:00 +27°C° 0.7 mm 1 mps 685 mmHg 82%
    16:00 +26°C° 0.4 mm 1 mps 685 mmHg 87%
    17:00 +25°C° 0.4 mm 1 mps 685 mmHg 92%
    18:00 +21°C° 0.4 mm 0 mps 685 mmHg 97%
    19:00 +21°C° 0.3 mm 0 mps 685 mmHg 97%
    20:00 +21°C° 0.3 mm 0 mps 686 mmHg 96%
    21:00 +21°C° 0.3 mm 0 mps 687 mmHg 96%
    22:00 +22°C° 0.5 mm 1 mps 686 mmHg 96%
    23:00 +22°C° 0.5 mm 1 mps 686 mmHg 96%

    Tomorrow, 18 September, Wednesday

    Time Temperature Precipitation Wind Pressure Humidity
    00:00 +22°C° 0.5 mm 1 mps 686 mmHg 95%
    01:00 +22°C° 0.3 mm 1 mps 686 mmHg 95%
    02:00 +21°C° 0.3 mm 1 mps 685 mmHg 95%
    03:00 +21°C° 0.3 mm 1 mps 685 mmHg 95%
    04:00 +21°C° 0.1 mm 1 mps 685 mmHg 94%
    05:00 +21°C° 0.1 mm 1 mps 685 mmHg 94%
    06:00 +20°C° 0.1 mm 1 mps 685 mmHg 94%
    07:00 +23°C° 0 mm 1 mps 686 mmHg 88%
    08:00 +25°C° 0 mm 1 mps 687 mmHg 81%
    09:00 +26°C° 0 mm 0 mps 687 mmHg 74%
    10:00 +28°C° 0.7 mm 1 mps 687 mmHg 75%
    11:00 +29°C° 0.7 mm 1 mps 687 mmHg 76%
    12:00 +29°C° 0.7 mm 1 mps 686 mmHg 77%
    13:00 +29°C° 1.1 mm 1 mps 686 mmHg 77%
    14:00 +29°C° 1.1 mm 1 mps 685 mmHg 78%
    15:00 +29°C° 1.1 mm 1 mps 685 mmHg 78%
    16:00 +27°C° 1.4 mm 1 mps 685 mmHg 83%
    17:00 +26°C° 1.4 mm 1 mps 684 mmHg 88%
    18:00 +24°C° 1.4 mm 1 mps 684 mmHg 94%
    19:00 +24°C° 1.5 mm 1 mps 685 mmHg 94%
    20:00 +23°C° 1.5 mm 1 mps 685 mmHg 94%
    21:00 +23°C° 1.5 mm 1 mps 686 mmHg 94%
    22:00 +22°C° 0.2 mm 1 mps 685 mmHg 94%
    23:00 +22°C° 0.2 mm 1 mps 685 mmHg 93%

    Day after tomorrow, 19 September, Thursday

    Time Temperature Precipitation Wind Pressure Humidity
    00:00 +22°C° 0.2 mm 1 mps 685 mmHg 92%
    01:00 +21°C° 0 mm 1 mps 685 mmHg 92%
    02:00 +21°C° 0 mm 1 mps 684 mmHg 91%
    03:00 +20°C° 0 mm 2 mps 684 mmHg 91%
    04:00 +20°C° 0 mm 2 mps 684 mmHg 90%
    05:00 +20°C° 0 mm 2 mps 684 mmHg 90%
    06:00 +20°C° 0 mm 2 mps 684 mmHg 89%
    07:00 +23°C° 0 mm 1 mps 685 mmHg 83%
    08:00 +25°C° 0 mm 1 mps 686 mmHg 76%
    09:00 +28°C° 0 mm 1 mps 686 mmHg 69%
    10:00 +28°C° 0.1 mm 1 mps 686 mmHg 69%
    11:00 +29°C° 0.1 mm 1 mps 686 mmHg 69%
    12:00 +29°C° 0.1 mm 2 mps 685 mmHg 68%
    13:00 +29°C° 0.9 mm 1 mps 685 mmHg 72%
    14:00 +29°C° 0.9 mm 1 mps 684 mmHg 76%
    15:00 +28°C° 0.9 mm 1 mps 683 mmHg 79%
    16:00 +25°C° 0.6 mm 0 mps 683 mmHg 84%
    17:00 +23°C° 0.6 mm 0 mps 683 mmHg 89%
    18:00 +22°C° 0.6 mm 0 mps 683 mmHg 94%
    19:00 +21°C° 0.1 mm 0 mps 683 mmHg 94%
    20:00 +23°C° 0.1 mm 1 mps 684 mmHg 94%
    21:00 +22°C° 0.1 mm 1 mps 684 mmHg 93%
    22:00 +22°C° 0 mm 1 mps 684 mmHg 92%
    23:00 +21°C° 0 mm 1 mps 684 mmHg 92%

    20 September, Friday

    Time Temperature Precipitation Wind Pressure Humidity
    00:00 +20°C° 0 mm 2 mps 684 mmHg 91%
    01:00 +20°C° 0 mm 2 mps 684 mmHg 90%
    02:00 +20°C° 0 mm 2 mps 683 mmHg 90%
    03:00 +19°C° 0 mm 2 mps 683 mmHg 89%
    04:00 +19°C° 0 mm 2 mps 683 mmHg 89%
    05:00 +19°C° 0 mm 2 mps 684 mmHg 88%
    06:00 +19°C° 0 mm 2 mps 684 mmHg 87%
    07:00 +23°C° 0 mm 1 mps 685 mmHg 80%
    08:00 +25°C° 0 mm 1 mps 685 mmHg 73%
    09:00 +28°C° 0 mm 1 mps 686 mmHg 66%
    10:00 +28°C° 0.2 mm 1 mps 686 mmHg 67%
    11:00 +29°C° 0.2 mm 1 mps 686 mmHg 68%
    12:00 +29°C° 0.2 mm 1 mps 685 mmHg 69%
    13:00 +28°C° 1.3 mm 1 mps 685 mmHg 74%
    14:00 +27°C° 1.3 mm 1 mps 684 mmHg 80%
    15:00 +27°C° 1.3 mm 1 mps 683 mmHg 85%
    16:00 +26°C° 0.8 mm 1 mps 683 mmHg 88%
    17:00 +24°C° 0.8 mm 1 mps 683 mmHg 91%
    18:00 +21°C° 0.8 mm 0 mps 684 mmHg 94%
    19:00 +21°C° 0.4 mm 0 mps 684 mmHg 95%
    20:00 +20°C° 0.4 mm 0 mps 685 mmHg 95%
    21:00 +20°C° 0.4 mm 0 mps 685 mmHg 95%
    22:00 +22°C° 0.9 mm 1 mps 685 mmHg 94%
    23:00 +21°C° 0.9 mm 1 mps 685 mmHg 94%

    21 September, Saturday

    Time Temperature Precipitation Wind Pressure Humidity
    00:00 +21°C° 0.9 mm 1 mps 685 mmHg 94%
    01:00 +21°C° 0.1 mm 1 mps 685 mmHg 93%
    02:00 +21°C° 0.1 mm 1 mps 684 mmHg 93%
    03:00 +21°C° 0.1 mm 1 mps 684 mmHg 92%
    04:00 +21°C° 0 mm 1 mps 684 mmHg 92%
    05:00 +20°C° 0 mm 1 mps 685 mmHg 92%
    06:00 +19°C° 0 mm 2 mps 685 mmHg 92%
    07:00 +23°C° 0 mm 1 mps 686 mmHg 85%
    08:00 +25°C° 0 mm 1 mps 686 mmHg 78%
    09:00 +27°C° 0 mm 1 mps 687 mmHg 72%
    10:00 +28°C° 0.4 mm 1 mps 687 mmHg 73%
    11:00 +28°C° 0.4 mm 1 mps 686 mmHg 75%
    12:00 +28°C° 0.4 mm 1 mps 686 mmHg 77%
    13:00 +27°C° 1.6 mm 1 mps 685 mmHg 81%
    14:00 +27°C° 1.6 mm 1 mps 684 mmHg 85%
    15:00 +26°C° 1.6 mm 1 mps 684 mmHg 89%
    16:00 +25°C° 0.9 mm 1 mps 684 mmHg 91%
    17:00 +24°C° 0.9 mm 1 mps 684 mmHg 94%
    18:00 +21°C° 0.9 mm 0 mps 684 mmHg 96%
    19:00 +21°C° 1 mm 0 mps 685 mmHg 96%
    20:00 +21°C° 1 mm 0 mps 685 mmHg 96%
    21:00 +22°C° 1 mm 1 mps 686 mmHg 96%
    22:00 +22°C° 0.4 mm 1 mps 686 mmHg 95%
    23:00 +22°C° 0.4 mm 1 mps 686 mmHg 95%

    22 September, Sunday

    Time Temperature Precipitation Wind Pressure Humidity
    00:00 +22°C° 0.4 mm 1 mps 686 mmHg 94%
    01:00 +22°C° 0.4 mm 1 mps 685 mmHg 94%
    02:00 +22°C° 0.4 mm 1 mps 685 mmHg 94%
    03:00 +21°C° 0.4 mm 1 mps 684 mmHg 94%
    04:00 +21°C° 0.1 mm 1 mps 685 mmHg 94%
    05:00 +21°C° 0.1 mm 1 mps 685 mmHg 93%
    06:00 +21°C° 0.1 mm 1 mps 685 mmHg 93%
    07:00 +23°C° 0 mm 1 mps 685 mmHg 88%
    08:00 +24°C° 0 mm 1 mps 686 mmHg 82%
    09:00 +24°C° 0 mm 0 mps 687 mmHg 77%
    10:00 +27°C° 0.4 mm 1 mps 686 mmHg 77%
    11:00 +27°C° 0.4 mm 1 mps 686 mmHg 77%
    12:00 +28°C° 0.4 mm 1 mps 686 mmHg 77%
    13:00 +27°C° 1.8 mm 1 mps 685 mmHg 81%
    14:00 +27°C° 1.8 mm 1 mps 684 mmHg 84%
    15:00 +26°C° 1.8 mm 1 mps 684 mmHg 88%
    16:00 +25°C° 1.5 mm 1 mps 684 mmHg 91%
    17:00 +24°C° 1.5 mm 1 mps 684 mmHg 93%
    18:00 +21°C° 1.5 mm 0 mps 684 mmHg 95%
    19:00 +21°C° 1 mm 0 mps 685 mmHg 95%
    20:00 +21°C° 1 mm 0 mps 685 mmHg 95%
    21:00 +21°C° 1 mm 0 mps 685 mmHg 95%
    22:00 +20°C° 0.9 mm 0 mps 685 mmHg 95%
    23:00 +20°C° 0.9 mm 0 mps 685 mmHg 95%
    Show more